Weather History for CWGB - November, 2012

Change the Weather History Date:

Monday, November 5, 2012

  Actual Average Record
Temperature  
Mean Temperature 50 °F -  
Max Temperature 53 °F - - ()
Min Temperature 47 °F - - ()
Degree Days  
Heating Degree Days 15    
Moisture  
Dew Point 45 °F    
Average Humidity 83    
Maximum Humidity 92    
Minimum Humidity 70    
Precipitation  
Precipitation 0.00 in - - ()
Sea Level Pressure  
Sea Level Pressure 30.30 in    
Wind  
Wind Speed 7 mph ()    
Max Wind Speed 14 mph    
Max Gust Speed -    
T = Trace of Precipitation, MM = Missing Value Source: Averaged Metar Reports

Daily Weather History Graph

Daily Weather History Graph

Search for Another Location

Airport or City:

Trip Planner

Search our weather history database for the weather conditions in past years. The results will help you decide how hot, cold, wet, or windy it might be!

Date:

Astronomy

Nov. 05, 2012 Rise Set
Actual Time 7:12 AM PST 4:47 PM PST
Civil Twilight 6:38 AM PST 5:21 PM PST
Nautical Twilight 6:00 AM PST 5:59 PM PST
Astronomical Twilight 5:23 AM PST 6:36 PM PST
Moon 10:32 PM PST (11/5) 12:35 PM PST (11/5)
Length of Visible Light 10h 43m
Length of Day
9h 35m
Waning Gibbous, 62% of the Moon is Illuminated
Nov 5
Waning Gibbous
Nov 6
Last Quarter
Nov 13
New
Nov 20
First Quarter
Nov 28
Full

Hourly Weather History & Observations

Time (PST) Temp. Dew Point Humidity Pressure Visibility Wind Dir Wind Speed Gust Speed Precip Events Conditions
12:00 AM 52.9 °F 44.2 °F 72% 30.24 in - NW 2.3 mph - N/A   Unknown
1:00 AM 52.0 °F 45.3 °F 78% 30.26 in - North 4.6 mph - N/A   Unknown
2:00 AM 51.3 °F 44.6 °F 78% 30.27 in - WSW 9.2 mph - N/A   Unknown
3:00 AM 51.8 °F 42.4 °F 70% 30.29 in - WSW 12.7 mph - N/A   Unknown
4:00 AM 50 °F 43 °F 70% 30.30 in - WSW 12.7 mph - -  
4:00 AM 50.4 °F 43.2 °F 76% 30.30 in - WSW 12.7 mph - N/A   Unknown
5:00 AM 50.2 °F 42.8 °F 76% 30.31 in - WSW 5.8 mph - N/A   Unknown
6:00 AM 48.6 °F 43.0 °F 81% 30.33 in - WSW 3.5 mph - N/A   Unknown
7:00 AM 50.0 °F 43.9 °F 79% 30.35 in - NW 9.2 mph - N/A   Unknown
8:00 AM 47.5 °F 42.4 °F 83% 30.35 in - WSW 8.1 mph - N/A   Unknown
9:00 AM 48.6 °F 45.9 °F 90% 30.36 in - West 12.7 mph - N/A   Unknown
10:00 AM 49 °F 45 °F 79% 30.36 in - WNW 13.8 mph - -  
10:00 AM 49.3 °F 44.6 °F 84% 30.36 in - WNW 13.8 mph - N/A   Unknown
11:00 AM 49.5 °F 44.6 °F 83% 30.36 in - West 11.5 mph - N/A   Unknown
12:00 PM 49.5 °F 45.7 °F 87% 30.35 in - WNW 13.8 mph - N/A   Unknown
1:00 PM 50.0 °F 45.9 °F 86% 30.35 in - WSW 10.4 mph - N/A   Unknown
2:00 PM 49.6 °F 45.3 °F 85% 30.33 in - West 9.2 mph - N/A   Unknown
3:00 PM 49.8 °F 45.7 °F 86% 30.32 in - WNW 11.5 mph - N/A   Unknown
4:00 PM 50 °F 46 °F 81% 30.34 in - WNW 8.1 mph - -  
4:00 PM 49.6 °F 45.9 °F 87% 30.34 in - WNW 8.1 mph - N/A   Unknown
5:00 PM 49.5 °F 45.3 °F 86% 30.31 in - NW 5.8 mph - N/A   Unknown
6:00 PM 49.3 °F 44.6 °F 84% 30.29 in - West 4.6 mph - N/A   Unknown
7:00 PM 48.6 °F 45.3 °F 89% 30.25 in - Calm Calm - N/A   Unknown
8:00 PM 48.4 °F 45.3 °F 89% 30.25 in - WSW 3.5 mph - N/A   Unknown
9:00 PM 48.2 °F 45.5 °F 90% 30.22 in - SW 4.6 mph - N/A   Unknown
10:00 PM 48 °F 45 °F 87% 30.20 in - WSW 3.5 mph - -  
10:00 PM 47.8 °F 45.3 °F 91% 30.20 in - WSW 3.5 mph - N/A   Unknown
11:00 PM 47.7 °F 45.3 °F 92% 30.19 in - WSW 3.5 mph - N/A   Unknown